Location: Ford County Road and Bridge Department
(37.7686°N, 99.9762°W)
Time: 18:03:50
(UTC+00:00)

SL-14 R/B - Pass Details

Date: 18 January 2020
Orbit: 518 x 555 km, 82.4° (Epoch: 22 February)

Event Time Altitude Azimuth Distance (km) Brightness Sun altitude
Rises 01:00:17 0° 199° (SSW) 2,719 7.4 -14.4°
Reaches altitude 10° 01:02:30 10° 205° (SSW) 1,826 6.5 -14.9°
Maximum altitude 01:06:23 46° 280° (W) 743 4.4 -15.6°
Drops below altitude 10° 01:10:16 10° 355° (N) 1,825 5.9 -16.4°
Sets 01:12:30 0° 1° (N) 2,717 6.7 -16.8°
